Showing default

XINGYUN-2 01, 45602

Orbit data source: Space-Track

XINGYUN-2 01, 45602 is a payload satellite owned by Xingyun (CN) in SSO that was launched on Tue, 12 May 2020 UTC via a KUAIZHOU-1A launch vehicle from the Jiuquan Satellite Launch Center, China (JSC). Payload-class satellites include a variety of spacecraft equipped with specific instruments for various scientific and technological missions. These include communications satellites like Starlink; space stations such as the ISS; scientific satellites like the Hubble; Earth observation satellites from companies like Planet Labs, Umbra, and HawkEye 360; GPS; miniature CubeSats for education and research; and military/defense satellites.

Loading next visibility...
Identifier
45602, 2020-028A
Orbit
SSO
Country
Flag of CNCN / PRC
Related business
Manufacturer
Sanjiang
Mission
Operational Commercial Communications
Bus & Motor
XINGYUN, Unknown motor
Mass
93 kg wet, ~85 kg dry
Launch date (UTC)
2020-05-12 (5 years ago)
Launch vehicle
KUAIZHOU-1A
Launch site
Jiuquan Satellite Launch Center, China (JSC)
Object type
Payload
Rocket body
Debris
Shape & HBR
Box, Unknown HBR
Radar Cross Section
0.569 m², Medium (>0.1 m² and < 1m²)

Expand to show TLE details & history
Last TLE update: 11 hours ago

TLE from 11 hours ago
0 XINGYUN-2 01
1 45602U 20028A   25261.29769988  .00002161  00000-0  13686-3 0  9990
2 45602  97.4723 254.7025 0011279  65.0149 295.2251 15.09961962293784
Epoch: 2025-09-18T07:08Z
TLE epoch observation values (Epoch: 2025-09-18T07:08:41.269Z)
Latitude
-0.00001°
Longitude
150.06924°
Altitude
536.074 km
Speed
7.596 km/s
True Right ascension
16h 58m 48s
True Declination
0° 00' 00"
Sunlit
Object was in daylight at epoch
Visualization orbit readout
Latitude
Unknown
Longitude
Unknown
Altitude
Unknown
Speed
Unknown
Apparent Right ascension
Unknown
Apparent Declination
Unknown
Sunlit
N/A
Visualization observer readout
Local Sidereal Time
10:43:04
Azimuth
Unknown
Elevation
Unknown
Doppler factor
Unknown
Orbital elements
Apogee altitude
541.094 km
Perigee altitude
525.503 km
Semi-major axis
6,911.435 km
Eccentricity
0.00113
Inclination
97.4723°
RAAN
254.7025°
Arg. of periapsis
65.0149°
True anomaly
295.10811°
Mean anomaly
295.2251°
Eccentric anomaly
295.16661°
Mean motion
3.77738 °/min
Orbital period
95.3 mins
BSTAR
0.00013686
Loading maneuver chart data...
Computing Atmospheric mass density...
Loading historical data...
Loading historical data...
Loading historical data...
Loading historical data...
Loading historical data...
Loading historical data...
Loading historical data...
Other satellites on launch #28 in the year 2020 (2020-05-12 UTC)

Documentation

Showing up to 5 results
|